User: anonymous   Login
Location: Unspecified
(0.0000°N, 0.0000°E)
Time: 13:05:08
(UTC+00:00)
Language:

USA 197 - Orbit

View from above orbital plane
View from above orbital plane
View from above satellite
View from above satellite

Ground track
Ground track

The orbit data is extracted from the following two-line orbital elements,

1 32287U 07054A   20324.91289703 0.00000000  00000-0  00000-0 0    01
2 32287   6.5358  64.3161 0002252 288.7598  71.2279  1.00185832    06
Epoch (UTC): 19 November 2020 21:54:34
Eccentricity: 0.0002252
inclination: 6.5358°
perigee height: 35801 km
apogee height: 35820 km
right ascension of ascending node: 64.3161°
argument of perigee: 288.7598°
revolutions per day: 1.00185832
mean anomaly at epoch: 71.2279°
orbit number at epoch: 0

The dashed part of the orbit path shows where the satellite is in the earth's shadow,  

DLR